Temperature
14 14 14 15 15 16 17 17 17 18 18 17 17 17 17 16 16 16 16 16 16 17 17 17 17 17 17 17 17 16 16 16 16 16 16 16 16 16
13 13 14 14 15 15 16 16 17 17 17 17 17 16 16 16 16 16 16 16 16 16 17 17 17 17 17 17 16 16 16 16 16 16 16 16 16 15
12 13 13 13 14 14 15 15 16 16 17 17 16 16 16 16 15 15 15 16 16 16 16 16 17 17 17 16 16 16 16 16 16 16 16 15 15 15
12 12 12 12 13 13 14 15 15 15 15 16 16 15 15 15 15 14 14 15 15 16 16 16 16 16 16 16 16 16 16 16 15 15 15 15 15 15
11 11 11 12 12 12 13 14 14 14 15 15 15 15 15 15 14 14 14 14 14 15 15 15 16 16 16 16 16 16 15 15 15 15 15 15 15 15
11 11 11 11 11 12 12 13 13 14 14 14 15 15 15 14 14 14 13 13 13 13 14 14 15 15 15 15 15 15 15 15 15 15 15 15 14 14
10 10 11 11 11 11 11 12 12 13 13 14 14 14 14 14 14 14 13 12 12 12 12 13 13 14 14 14 14 14 14 14 14 14 14 14 13 13
9 10 10 11 11 11 11 11 11 12 12 13 13 14 14 14 14 14 13 12 12 12 12 12 12 12 13 13 13 13 13 13 13 13 13 13 13 13
8 9 9 10 10 11 11 11 11 11 11 12 12 13 13 13 14 13 13 12 12 12 12 11 11 12 12 12 12 12 12 12 12 12 12 12 12 13
8 8 9 10 10 10 10 10 11 11 11 11 12 12 13 13 13 14 13 12 12 11 11 11 11 11 11 11 11 11 12 12 12 12 12 12 12 12
8 8 9 9 10 10 10 10 10 10 11 11 11 12 12 12 13 13 12 12 11 11 11 11 11 11 11 11 11 11 11 11 11 12 12 12 12 12
7 8 8 9 9 10 10 10 10 10 10 10 11 11 11 12 12 12 13 12 12 11 11 11 11 11 10 10 10 10 10 10 11 11 11 12 12 12
7 8 8 9 9 9 10 10 10 10 10 10 10 11 11 11 12 12 12 13 12 12 12 11 11 11 11 9 9 9 10 10 10 11 11 11 12 12
7 8 8 9 9 9 9 9 9 9 9 9 10 10 11 11 11 11 12 12 12 13 13 12 12 11 12 11 9 9 9 10 10 10 10 10 10 10
7 7 8 8 9 9 9 9 9 9 9 9 10 10 10 11 11 11 11 11 11 12 12 12 12 12 12 13 12 10 9 9 9 9 9 9 9 9
7 7 7 8 8 9 9 9 9 9 9 9 10 10 10 10 11 11 11 11 11 11 11 11 11 11 11 12 12 11 10 10 9 9 9 8 8 8
7 7 8 8 8 8 8 9 9 9 9 9 10 10 10 10 10 10 11 11 11 11 10 10 10 10 10 11 11 11 10 9 9 8 8 8 8 8
7 7 7 8 8 8 8 9 9 9 9 9 10 10 10 10 10 10 10 11 11 11 11 10 9 9 9 9 10 10 10 9 9 8 8 8 8 8
7 7 8 8 8 8 9 9 9 9 9 9 10 10 10 10 10 10 10 10 10 11 10 10 10 9 9 9 9 9 10 9 9 8 8 8 8 8
7 7 8 8 8 9 9 9 9 10 9 9 10 9 9 10 9 10 10 10 10 10 10 9 10 10 10 10 10 10 10 9 9 9 9 9 9 9
8 8 8 9 9 9 9 9 9 10 10 9 9 9 9 9 9 9 10 10 10 10 9 9 10 10 10 10 10 10 10 10 9 9 9 9 9 10
8 8 9 9 9 9 9 9 9 9 9 9 9 9 9 9 9 9 9 9 10 10 10 10 10 10 10 10 10 10 10 10 10 9 9 9 10 10
8 8 9 9 9 9 9 9 9 9 9 9 9 9 9 9 9 9 9 9 10 9 9 9 10 10 10 11 11 10 10 10 10 10 10 10 10 11
Wind_Speed
3 4 4 5 5 5 4 3 2 4 4 5 4 6 5 7 8 6 8 7 8 10 12 14 15 15 15 17 18 19 19 19 19 20 20 20 21 21
4 4 4 3 4 4 5 4 3 3 3 4 4 8 8 8 7 9 9 9 5 5 8 10 12 13 13 14 14 15 15 15 15 14 13 14 14 14
7 6 6 4 4 4 4 4 4 3 3 3 5 9 9 10 8 8 9 8 7 7 7 8 9 9 10 10 11 11 11 12 11 10 9 9 9 8
9 8 8 6 6 4 4 4 4 4 2 4 7 8 9 10 9 8 6 9 8 9 10 11 11 11 10 10 11 11 11 11 10 9 9 8 7 7
10 10 9 9 8 6 5 4 4 4 3 3 5 7 8 9 10 9 9 7 8 10 12 13 14 14 14 14 13 13 13 12 12 11 10 10 10 10
11 10 10 10 10 9 7 6 5 4 3 4 5 7 8 10 10 9 7 6 6 6 9 12 15 16 15 15 15 15 16 16 17 17 18 18 18 17
12 11 11 12 13 11 9 8 8 5 4 4 5 5 7 10 10 8 9 7 5 5 6 6 7 8 10 13 15 17 19 20 21 22 22 23 23 22
11 11 12 12 13 15 14 13 13 10 8 6 6 6 8 9 9 10 10 8 4 4 5 6 6 7 7 9 14 18 20 21 22 23 23 23 23 23
11 11 14 14 14 12 13 14 13 13 12 8 7 7 6 7 10 12 12 10 6 7 6 6 7 8 7 11 15 18 20 21 22 22 22 23 23 23
11 11 12 11 11 12 13 12 11 11 11 9 8 7 4 3 6 8 10 9 9 6 6 5 6 7 7 10 13 17 19 21 22 22 22 23 23 22
12 12 12 12 13 13 12 12 11 9 12 12 10 8 6 4 3 6 10 13 10 5 3 5 7 8 7 6 10 14 17 19 21 22 23 24 25 22
9 10 14 13 13 13 11 11 11 9 10 11 10 9 8 7 8 9 11 13 11 6 5 6 9 6 5 4 5 9 11 14 17 20 22 22 17 14
8 8 8 12 13 14 12 9 10 9 9 10 9 8 7 7 8 8 9 11 12 5 10 7 9 6 6 6 5 6 8 8 10 11 14 12 7 9
5 4 4 10 13 14 11 8 10 9 7 7 8 8 8 8 8 9 9 8 6 8 13 10 8 8 9 9 6 7 7 9 9 7 9 8 6 11
0 1 2 8 10 9 10 10 9 6 6 7 8 8 8 8 8 8 7 7 8 10 14 8 9 9 9 7 9 9 7 6 7 5 5 5 5 10
3 3 5 6 6 7 8 8 7 7 6 6 7 7 7 8 8 8 9 10 8 7 6 8 10 11 8 9 12 11 8 8 8 7 6 4 9 13
3 5 5 5 6 7 7 8 8 7 7 6 6 7 8 8 8 9 10 10 7 9 7 5 7 7 7 10 12 11 9 7 8 8 7 6 6 9
2 5 6 6 8 8 8 8 9 8 7 7 6 7 8 9 9 10 11 10 11 10 10 10 10 7 4 3 9 11 10 9 8 8 7 7 8 8
3 5 6 7 7 7 7 8 9 9 8 7 7 7 8 9 11 12 12 11 11 11 11 12 13 11 12 10 9 12 11 9 9 9 8 6 7 8
6 7 6 6 6 7 7 7 7 7 7 7 7 7 8 10 12 12 13 13 13 12 11 11 12 12 11 9 7 8 14 10 9 9 9 6 4 7
7 7 6 6 6 6 7 7 7 6 7 7 7 8 8 10 12 13 13 17 15 15 15 14 13 14 7 7 8 7 7 12 14 9 9 7 5 5
6 6 6 6 6 6 6 6 5 5 6 7 7 8 9 10 12 14 14 16 14 14 14 13 12 11 8 10 10 9 7 5 9 16 14 8 6 8
5 5 5 5 5 5 5 6 7 6 6 7 7 8 10 10 11 13 14 15 14 14 14 13 13 10 9 10 10 9 10 9 6 6 5 9 10 9
Wind_Direction
264 263 260 268 290 307 313 299 238 215 202 166 138 138 126 113 138 145 131 155 178 194 200 204 208 211 213 215 216 217 218 219 221 223 226 229 231 234
229 240 250 259 281 290 301 304 287 249 221 180 159 152 145 138 138 116 111 118 118 163 183 193 199 204 207 208 207 207 209 211 213 215 219 224 227 229
215 218 224 222 244 266 282 294 291 278 238 188 147 145 138 132 132 130 138 121 91 96 123 145 162 173 182 186 187 187 188 188 189 190 194 197 198 203
222 214 213 211 212 227 247 264 276 283 262 202 154 154 150 140 140 137 124 107 96 89 98 106 117 125 134 144 148 152 155 159 162 166 170 170 171 173
233 221 212 204 205 203 211 227 246 264 268 227 190 165 151 146 136 122 110 109 106 103 93 92 99 105 111 117 123 128 132 135 135 134 135 136 133 127
243 231 218 209 205 199 202 207 212 223 242 241 216 175 159 151 140 135 129 126 119 106 91 94 94 93 99 106 111 116 120 122 122 120 118 116 114 111
249 239 229 217 210 200 198 195 195 199 208 223 220 195 170 163 160 153 143 129 114 131 123 117 104 92 88 93 103 111 115 116 116 114 113 111 109 106
255 246 242 228 218 201 196 191 190 195 199 205 212 209 195 180 165 157 148 147 144 158 138 122 111 96 82 85 106 112 114 114 114 113 112 110 109 107
251 244 244 233 210 199 196 194 195 197 194 191 206 211 202 189 172 164 163 162 146 155 133 112 100 88 82 90 107 113 116 117 117 115 114 112 110 108
243 236 235 245 225 199 192 196 200 200 198 197 203 209 208 207 183 171 161 138 123 134 129 114 110 99 92 89 103 115 120 122 121 120 117 114 110 107
238 234 228 228 228 204 193 195 198 199 201 201 200 199 200 212 207 162 156 148 144 142 126 116 124 111 97 95 102 113 122 127 128 127 125 122 116 107
235 235 228 221 213 196 194 194 200 200 189 193 202 206 206 213 206 182 168 159 150 147 156 130 145 134 112 107 120 125 121 127 134 137 138 136 128 119
229 225 222 204 198 194 194 194 198 194 188 186 193 201 202 202 192 187 184 169 160 152 161 144 157 146 129 138 145 146 142 146 143 148 158 164 158 143
228 220 214 196 198 194 192 190 182 183 187 187 190 196 197 196 190 189 187 172 153 147 160 154 155 159 143 142 145 155 157 164 163 168 184 197 196 164
350 63 213 192 191 197 200 180 175 195 196 192 195 199 193 188 179 173 154 137 120 136 154 152 146 149 150 147 149 157 160 173 179 176 176 178 165 148
202 176 176 185 200 205 185 187 201 210 204 206 197 190 181 181 174 157 146 136 124 119 118 133 144 150 149 143 151 159 163 170 181 179 173 173 174 169
197 189 188 184 202 208 200 194 203 213 216 215 202 187 181 178 169 156 150 145 141 150 143 128 126 133 143 151 158 165 168 169 175 176 171 177 184 180
213 211 213 212 211 208 205 202 203 209 211 206 199 188 180 176 165 157 158 156 153 155 155 153 147 140 141 166 176 168 173 174 171 174 179 180 187 189
236 231 222 220 220 219 213 209 207 207 206 203 192 187 179 172 167 164 164 159 158 159 162 163 164 168 174 178 190 188 175 171 168 174 190 192 185 184
236 241 232 227 222 222 222 218 210 203 196 192 188 185 180 173 171 170 169 164 161 159 164 173 178 181 182 173 163 179 186 168 166 174 189 201 179 174
231 232 231 227 227 222 220 216 209 195 188 185 186 183 181 176 174 173 171 166 163 166 173 181 188 185 175 150 152 159 166 173 170 170 182 188 174 160
249 242 234 225 216 212 211 205 203 194 187 187 185 185 180 179 177 173 171 170 172 172 174 175 178 186 185 169 166 160 153 150 159 169 177 194 188 182
240 239 235 227 214 200 203 206 208 202 195 193 191 186 181 179 176 174 172 172 172 170 169 171 178 185 185 171 163 159 157 157 159 156 150 143 125 125
Height
1459 1461 1462 1465 1466 1468 1471 1473 1476 1477 1480 1481 1483 1485 1488 1490 1492 1493 1495 1498 1500 1503 1506 1508 1512 1515 1518 1521 1524 1527 1530 1533 1535 1538 1540 1543 1545 1547
1454 1455 1457 1459 1462 1464 1467 1469 1472 1474 1476 1478 1479 1481 1484 1486 1488 1489 1492 1494 1496 1499 1501 1504 1507 1510 1513 1516 1519 1522 1525 1528 1531 1533 1535 1537 1539 1541
1449 1450 1451 1453 1455 1458 1461 1464 1467 1470 1472 1475 1476 1478 1481 1483 1485 1487 1489 1491 1493 1495 1498 1501 1504 1506 1509 1512 1515 1518 1521 1523 1526 1528 1530 1532 1534 1535
1444 1445 1445 1447 1448 1451 1454 1458 1461 1464 1468 1471 1473 1475 1477 1480 1483 1485 1486 1488 1490 1492 1495 1497 1500 1503 1506 1508 1511 1514 1517 1519 1522 1524 1526 1528 1530 1531
1438 1439 1440 1441 1442 1444 1447 1451 1455 1458 1462 1466 1469 1472 1474 1477 1480 1482 1484 1485 1487 1489 1492 1494 1497 1500 1503 1505 1508 1510 1513 1516 1518 1520 1522 1524 1526 1527
1431 1433 1434 1436 1437 1438 1440 1443 1447 1451 1456 1460 1464 1468 1471 1473 1476 1479 1481 1483 1485 1488 1489 1492 1494 1497 1500 1502 1505 1508 1510 1513 1515 1517 1519 1521 1522 1524
1422 1425 1428 1430 1431 1433 1435 1437 1440 1444 1448 1453 1458 1462 1466 1469 1472 1475 1478 1481 1484 1486 1488 1490 1492 1495 1497 1500 1502 1505 1508 1511 1513 1515 1517 1519 1521 1522
1413 1416 1420 1423 1425 1427 1429 1431 1434 1437 1442 1446 1450 1455 1459 1463 1467 1471 1474 1477 1481 1485 1487 1489 1492 1494 1496 1498 1501 1504 1507 1509 1512 1514 1516 1518 1520 1521
1405 1408 1412 1415 1418 1420 1422 1425 1427 1430 1435 1439 1443 1448 1453 1458 1462 1466 1469 1474 1477 1481 1485 1488 1491 1493 1496 1498 1501 1504 1507 1509 1511 1514 1516 1517 1519 1521
1396 1399 1404 1407 1411 1413 1416 1418 1421 1424 1427 1432 1437 1442 1447 1452 1456 1461 1465 1470 1475 1480 1483 1485 1489 1492 1495 1498 1501 1504 1506 1509 1511 1514 1516 1517 1519 1520
1387 1391 1396 1400 1404 1407 1410 1412 1415 1418 1422 1426 1431 1436 1440 1445 1450 1455 1460 1465 1470 1475 1479 1482 1485 1489 1493 1497 1500 1503 1506 1509 1511 1513 1515 1517 1519 1520
1381 1385 1389 1394 1398 1401 1405 1408 1411 1413 1417 1421 1425 1429 1434 1439 1444 1448 1453 1458 1463 1470 1474 1477 1481 1486 1491 1495 1499 1502 1505 1508 1510 1513 1515 1516 1518 1519
1375 1379 1383 1388 1393 1396 1400 1404 1407 1411 1414 1417 1420 1424 1428 1433 1438 1443 1449 1453 1458 1462 1467 1472 1477 1482 1486 1491 1496 1500 1504 1507 1509 1511 1514 1516 1517 1518
1371 1376 1379 1384 1388 1392 1397 1401 1404 1408 1411 1413 1416 1420 1423 1428 1433 1439 1444 1450 1455 1460 1464 1468 1472 1477 1481 1486 1491 1497 1502 1505 1508 1510 1513 1515 1516 1517
1370 1373 1377 1381 1385 1389 1393 1397 1401 1404 1407 1410 1413 1416 1420 1424 1430 1435 1440 1445 1451 1456 1462 1466 1470 1474 1479 1482 1486 1491 1497 1502 1506 1509 1511 1514 1515 1517
1370 1373 1376 1379 1382 1386 1389 1393 1397 1400 1403 1406 1410 1413 1416 1420 1424 1429 1434 1440 1446 1451 1458 1463 1468 1472 1476 1481 1485 1489 1494 1498 1502 1507 1510 1513 1515 1517
1370 1373 1375 1378 1380 1383 1386 1389 1392 1396 1399 1403 1406 1409 1412 1416 1420 1425 1430 1435 1441 1446 1452 1459 1465 1471 1477 1480 1483 1487 1491 1496 1500 1504 1508 1511 1513 1516
1369 1371 1374 1375 1377 1380 1383 1386 1389 1392 1395 1399 1402 1405 1408 1411 1415 1420 1426 1431 1436 1442 1448 1454 1461 1468 1475 1480 1483 1485 1489 1494 1498 1502 1506 1509 1512 1514
1368 1369 1371 1372 1374 1376 1379 1382 1385 1388 1391 1395 1397 1400 1403 1407 1411 1415 1420 1426 1432 1438 1444 1450 1456 1462 1468 1473 1478 1483 1486 1491 1495 1499 1503 1507 1510 1512
1365 1367 1368 1369 1371 1373 1375 1378 1381 1384 1387 1389 1392 1395 1398 1402 1406 1410 1416 1421 1427 1434 1440 1446 1452 1457 1462 1468 1473 1479 1485 1488 1492 1496 1500 1505 1509 1511
1363 1364 1365 1366 1368 1369 1372 1374 1377 1379 1382 1384 1387 1390 1393 1398 1402 1407 1412 1417 1423 1429 1435 1441 1448 1456 1463 1469 1473 1477 1482 1487 1490 1494 1498 1502 1505 1507
1360 1361 1362 1363 1364 1366 1368 1370 1373 1375 1377 1379 1382 1385 1388 1392 1397 1402 1407 1412 1419 1425 1432 1439 1447 1454 1461 1465 1469 1474 1479 1485 1489 1493 1497 1500 1502 1504
1357 1358 1358 1360 1361 1362 1364 1366 1368 1370 1372 1374 1377 1380 1383 1388 1393 1398 1403 1409 1416 1423 1430 1437 1445 1452 1458 1463 1468 1472 1477 1482 1486 1490 1494 1498 1500 1502